N6EQ Weather Reports


time (UTC)temp
F
wind
direction
speed
knots
gust
knots
rain 1hr
in
rain 24hr
in
rain mn
in
humidity
%
barometer
mb
20260905143013 83 92 0.0 0.0 0.00 0.00 0.00 18 951.9
20260905141510 82 117 0.0 0.0 0.00 0.00 0.00 18 951.7
20260905140009 81 119 0.0 0.0 0.00 0.00 0.00 18 951.4
20260905134506 81 119 0.0 0.0 0.00 0.00 0.00 18 951.2
20260905133005 80 114 0.0 0.0 0.00 0.00 0.00 18 950.9
20260905131606 82 131 0.0 0.0 0.00 0.00 0.00 18 950.6
20260905130059 82 120 0.0 0.0 0.00 0.00 0.00 17 950.4
20260905124558 82 118 0.0 0.0 0.00 0.00 0.00 17 950.3
20260905123055 81 120 0.0 0.0 0.00 0.00 0.00 17 950.2
20260905121557 82 115 0.0 0.0 0.00 0.00 0.00 17 950.1
20260905120114 82 121 0.0 0.0 0.00 0.00 0.00 17 950.2
20260905114555 82 121 0.0 0.0 0.00 0.00 0.00 17 950.2
20260905113054 81 125 0.0 0.0 0.00 0.00 0.00 18 950.2
20260905111608 81 124 0.0 0.0 0.00 0.00 0.00 17 950.2
20260905110055 81 91 0.0 0.0 0.00 0.00 0.00 16 950.1
20260905104548 82 122 0.0 0.0 0.00 0.00 0.00 16 950.2
20260905103050 82 123 0.0 0.0 0.00 0.00 0.00 16 950.2
20260905101544 83 143 0.0 0.0 0.00 0.00 0.00 16 950.1
20260905100046 83 152 0.0 0.0 0.00 0.00 0.00 15 950.0
20260905094541 83 151 0.0 0.0 0.00 0.00 0.00 15 950.1
20260905093039 83 131 0.0 0.0 0.00 0.00 0.00 15 949.9
20260905091610 83 141 0.0 0.0 0.00 0.00 0.00 14 949.9
20260905090036 84 150 0.0 0.0 0.00 0.00 0.00 14 949.8
20260905084534 85 218 0.0 0.0 0.00 0.00 0.00 14 949.9
20260905083032 85 107 0.0 0.0 0.00 0.00 0.00 14 949.9
20260905081529 85 171 0.0 0.0 0.00 0.00 0.00 14 949.8
20260905080036 86 152 0.0 0.0 0.00 0.00 0.00 13 949.8
20260905074524 88 219 0.0 0.0 0.00 0.00 0.00 13 949.7
20260905073022 88 119 0.0 2.6 0.00 0.00 0.00 12 949.5
20260905071522 87 137 0.0 0.0 0.00 0.00 0.00 13 949.5
20260905070023 88 153 0.0 0.0 0.00 0.00 0.00 13 949.5
20260905064518 89 188 0.0 1.7 0.00 0.00 0.00 13 949.4
20260905063015 89 113 0.0 0.9 0.00 0.00 0.00 12 949.4
20260905061515 90 122 0.0 0.9 0.00 0.00 0.00 12 949.3
20260905060014 90 151 0.0 4.3 0.00 0.00 0.00 12 949.3
20260905054517 90 122 0.0 5.2 0.00 0.00 0.00 12 949.2
20260905053013 90 139 0.0 2.6 0.00 0.00 0.00 11 949.1
20260905051514 90 105 0.0 1.7 0.00 0.00 0.00 11 949.1
20260905050012 90 0.0 4.3 0.00 0.00 0.00 10 949.0
20260905044511 91 1.7 9.6 0.00 0.00 0.00 10 949.0
20260905043020 92 0.9 9.6 0.00 0.00 0.00 9 948.8
20260905041509 92 2.6 11.3 0.00 0.00 0.00 9 948.7
20260905040009 92 0.9 8.7 0.00 0.00 0.00 8 948.5
20260905034508 92 156 0.9 5.2 0.00 0.00 0.00 8 948.3
20260905033007 92 217 0.0 0.9 0.00 0.00 0.00 8 948.1
20260905031507 93 137 0.0 6.1 0.00 0.00 0.00 9 947.9
20260905030008 94 134 0.0 6.1 0.00 0.00 0.00 9 947.6
20260905024506 94 198 0.9 7.0 0.00 0.00 0.00 8 947.5
20260905023006 95 164 2.6 8.7 0.00 0.00 0.00 8 947.4
20260905021505 95 161 0.0 8.7 0.00 0.00 0.00 8 947.4
20260905020006 96 188 3.5 11.3 0.00 0.00 0.00 8 947.3
20260905014503 97 136 5.2 14.8 0.00 0.00 0.00 9 947.2
20260905013002 98 147 5.2 13.0 0.00 0.00 0.00 8 947.3
20260905011501 98 149 4.3 18.2 0.00 0.00 0.00 8 947.3
20260905010001 99 131 0.9 13.0 0.00 0.00 0.00 8 947.4
20260905004600 99 166 9.6 16.5 0.00 0.00 0.00 8 947.3
20260905003100 99 229 6.1 13.0 0.00 0.00 0.00 8 947.3
20260905001606 99 188 1.7 19.1 0.00 0.00 0.00 11 947.4
20260905000112 99 151 4.3 19.1 0.00 0.00 0.00 11 947.4
20260904234601 99 160 6.1 15.6 0.00 0.00 0.00 13 947.4
20260904233118 99 215 7.0 15.6 0.00 0.00 0.00 15 947.5
20260904231605 99 198 3.5 16.5 0.00 0.00 0.00 15 947.7
20260904230058 99 214 5.2 16.5 0.00 0.00 0.00 14 947.9
20260904224558 99 205 9.6 15.6 0.00 0.00 0.00 15 948.0
20260904223119 98 213 8.7 20.0 0.00 0.00 0.00 13 948.1
20260904221555 99 196 14.8 23.5 0.00 0.00 0.00 11 948.2
20260904220052 99 176 7.8 21.7 0.00 0.00 0.00 8 948.3
20260904214551 98 204 7.0 22.6 0.00 0.00 0.00 13 948.6
20260904213049 98 173 10.4 21.7 0.00 0.00 0.00 14 948.8
20260904211549 97 221 10.4 19.1 0.00 0.00 0.00 17 948.8
20260904210058 97 12.2 22.6 0.00 0.00 0.00 18 948.9
20260904204545 97 10.4 19.1 0.00 0.00 0.00 21 949.0
20260904203047 96 153 13.0 20.9 0.00 0.00 0.00 22 949.1
20260904201543 95 17.4 25.2 0.00 0.00 0.00 21 949.2
20260904200041 95 9.6 20.0 0.00 0.00 0.00 25 949.4
20260904194540 95 134 13.9 20.9 0.00 0.00 0.00 25 949.6
20260904193040 94 210 14.8 23.5 0.00 0.00 0.00 26 949.7
20260904191542 94 179 12.2 24.3 0.00 0.00 0.00 25 950.0
20260904190036 93 134 10.4 20.9 0.00 0.00 0.00 28 950.1
20260904184534 93 226 13.0 19.1 0.00 0.00 0.00 26 950.2
20260904183031 93 198 7.8 20.0 0.00 0.00 0.00 27 950.3
20260904181533 92 188 12.2 0.0 0.00 0.00 0.00 25 950.3
20260904180025 92 207 12.2 19.1 0.00 0.00 0.00 28 950.5
20260904174522 92 200 13.9 21.7 0.00 0.00 0.00 27 950.5
20260904173042 91 189 13.0 24.3 0.00 0.00 0.00 31 950.6
20260904171517 89 212 0.0 8.7 0.00 0.00 0.00 30 950.5
20260904170013 88 223 0.0 7.8 0.00 0.00 0.00 27 950.4
20260904164510 87 240 0.0 7.8 0.00 0.00 0.00 25 950.4
20260904163008 86 238 1.7 7.8 0.00 0.00 0.00 23 950.3
20260904161511 86 229 2.6 8.7 0.00 0.00 0.00 23 950.2
20260904160005 85 2.6 7.8 0.00 0.00 0.00 22 950.1
20260904154502 84 226 0.0 1.7 0.00 0.00 0.00 19 950.2
20260904153102 83 240 0.0 0.0 0.00 0.00 0.00 17 950.0
20260904151604 83 238 0.0 0.0 0.00 0.00 0.00 16 950.0
20260904150058 82 221 0.0 0.0 0.00 0.00 0.00 16 949.8
20260904144609 82 236 0.0 0.0 0.00 0.00 0.00 16 949.7